This is the latest recevied weather packets stored in our database for station/object KA8OAD-10. If no packets are shown the sender has not sent any weather packets the latest 10 day(s).
| Time | Temp. | Humidity | Pressure | Rain* | Wind** | Luminosity | Snow |
|---|---|---|---|---|---|---|---|
| 1777100251 | 15° C | 92% | 1005.5 hPa | 0 mm | - | 0 W/m² | - |
| 1777099349 | 15° C | 92% | 1005.7 hPa | 0 mm | - | 0 W/m² | - |
| 1777098753 | 15° C | 92% | 1005.8 hPa | 0 mm | - | 0 W/m² | - |
| 1777098452 | 15° C | 92% | 1005.7 hPa | 0 mm | - | 0 W/m² | - |
| 1777098152 | 15° C | 92% | 1005.9 hPa | 0 mm | - | 0 W/m² | - |
| 1777096653 | 15.56° C | 92% | 1006.2 hPa | 0.51 mm | - | 0 W/m² | - |
| 1777095752 | 15.56° C | 91% | 1006.4 hPa | 2.54 mm | - | 0 W/m² | - |
| 1777095151 | 15.56° C | 91% | 1006.5 hPa | 4.32 mm | - | 0 W/m² | - |
| 1777094851 | 15.56° C | 91% | 1006.5 hPa | 4.57 mm | - | 0 W/m² | - |
| 1777094250 | 15.56° C | 91% | 1006.5 hPa | 5.08 mm | - | 0 W/m² | - |
| 1777093953 | 15.56° C | 91% | 1006.7 hPa | 5.08 mm | - | 0 W/m² | - |
| 1777093652 | 15.56° C | 91% | 1006.8 hPa | 5.33 mm | - | 0 W/m² | - |
| 1777093352 | 15.56° C | 91% | 1006.8 hPa | 5.84 mm | - | 0 W/m² | - |
| 1777092150 | 16.11° C | 90% | 1007.2 hPa | 5.08 mm | - | 0 W/m² | - |
| 1777091853 | 16.11° C | 90% | 1007.3 hPa | 3.81 mm | - | 0 W/m² | - |
| 1777090952 | 16.11° C | 90% | 1007.2 hPa | 3.56 mm | - | 0 W/m² | - |
| 1777090351 | 16.11° C | 89% | 1006.8 hPa | 2.79 mm | - | 0 W/m² | - |
| 1777089749 | 16.67° C | 89% | 1007 hPa | 2.54 mm | - | 0 W/m² | - |
| 1777089453 | 16.67° C | 89% | 1007.1 hPa | 2.54 mm | - | 0 W/m² | - |
| 1777089153 | 16.67° C | 89% | 1007.2 hPa | 1.78 mm | - | 0 W/m² | - |
| 1777088552 | 16.67° C | 89% | 1007.3 hPa | 1.78 mm | - | 0 W/m² | - |
| 1777087951 | 16.67° C | 90% | 1007.3 hPa | 1.27 mm | - | 0 W/m² | - |
| 1777087650 | 16.67° C | 89% | 1007.3 hPa | 1.27 mm | - | 0 W/m² | - |
| 1777087349 | 16.67° C | 89% | 1007.5 hPa | 0.76 mm | - | 0 W/m² | - |
| 1777086753 | 17.22° C | 89% | 1007.6 hPa | 0.51 mm | - | 0 W/m² | - |
* Rain latest hour (hover to see other rain measurements)
** Current wind speed in m/s (hover to see current wind gust speed)